FW0954 Weather Reports


Display with metric or nautical units.
time (UTC)temp
F
wind
direction
speed
MPH
gust
MPH
rain 1hr
in
rain 24hr
in
rain mn
in
humidity
%
barometer
mb
20260905053501 84 201 0.0 3.0 0.00 0.00 0.00 72 1013.5
20260905053002 85 203 0.0 2.0 0.00 0.00 0.00 72 1013.4
20260905052501 85 194 1.0 2.0 0.00 0.00 0.00 72 1013.4
20260905052001 85 179 0.0 2.0 0.00 0.00 0.00 72 1013.4
20260905051501 85 189 0.0 3.0 0.00 0.00 0.00 71 1013.3
20260905051002 85 203 0.0 3.0 0.00 0.00 0.00 71 1013.3
20260905050502 85 206 1.0 3.0 0.00 0.00 0.00 71 1013.3
20260905050002 85 204 1.0 3.0 0.00 0.00 0.00 71 1013.2
20260905045501 85 199 1.0 4.0 0.00 0.00 0.00 71 1013.3
20260905045001 85 189 0.0 4.0 0.00 0.00 0.00 71 1013.3
20260905044503 86 182 0.0 3.0 0.00 0.00 0.00 70 1013.4
20260905044002 86 177 0.0 3.0 0.00 0.00 0.00 70 1013.4
20260905043001 86 181 1.0 4.0 0.00 0.00 0.00 70 1013.3
20260905042501 86 183 1.0 4.0 0.00 0.00 0.00 69 1013.4
20260905042001 86 179 0.0 3.0 0.00 0.00 0.00 69 1013.4
20260905041502 86 183 1.0 3.0 0.00 0.00 0.00 69 1013.5
20260905040501 86 184 1.0 4.0 0.00 0.00 0.00 68 1013.5
20260905040001 86 190 1.0 4.0 0.00 0.00 0.00 68 1013.5
20260905035501 86 188 0.0 3.0 0.00 0.00 0.00 68 1013.5
20260905035002 86 173 0.0 2.0 0.00 0.00 0.00 67 1013.6
20260905034501 86 172 0.0 2.0 0.00 0.00 0.00 67 1013.5
20260905033501 86 165 0.0 2.0 0.00 0.00 0.00 66 1013.5
20260905033002 87 174 1.0 3.0 0.00 0.00 0.00 66 1013.5
20260905032502 87 182 1.0 3.0 0.00 0.00 0.00 65 1013.5
20260905032001 87 183 0.0 2.0 0.00 0.00 0.00 65 1013.4
20260905031501 87 177 0.0 2.0 0.00 0.00 0.00 65 1013.5
20260905031001 88 172 0.0 2.0 0.00 0.00 0.00 64 1013.4
20260905030501 88 170 0.0 1.0 0.00 0.00 0.00 64 1013.4
20260905025501 88 171 1.0 3.0 0.00 0.00 0.00 63 1013.3
20260905025002 88 170 1.0 3.0 0.00 0.00 0.00 63 1013.2
20260905024501 88 173 1.0 3.0 0.00 0.00 0.00 63 1013.2
20260905024002 89 173 0.0 3.0 0.00 0.00 0.00 62 1013.0
20260905023501 89 168 1.0 3.0 0.00 0.00 0.00 62 1013.0
20260905023002 89 165 1.0 3.0 0.00 0.00 0.00 62 1012.9
20260905022501 89 166 0.0 3.0 0.00 0.00 0.00 63 1012.8
20260905022002 89 164 0.0 2.0 0.00 0.00 0.00 62 1012.7
20260905021502 89 162 0.0 2.0 0.00 0.00 0.00 62 1012.5
20260905021001 90 168 0.0 2.0 0.00 0.00 0.00 61 1012.5
20260905020502 90 166 1.0 3.0 0.00 0.00 0.00 61 1012.5
20260905020001 90 168 1.0 3.0 0.00 0.00 0.00 61 1012.3
20260905015502 90 166 1.0 3.0 0.00 0.00 0.00 60 1012.2
20260905015001 90 164 1.0 3.0 0.00 0.00 0.00 60 1012.2
20260905014502 90 165 1.0 3.0 0.00 0.00 0.00 60 1012.1
20260905014001 90 163 1.0 3.0 0.00 0.00 0.00 60 1012.1
20260905013501 91 162 1.0 3.0 0.00 0.00 0.00 60 1012.0
20260905013001 91 165 1.0 3.0 0.00 0.00 0.00 59 1012.0
20260905012501 91 168 1.0 5.0 0.00 0.00 0.00 59 1011.9
20260905011501 91 166 1.0 4.0 0.00 0.00 0.00 58 1011.9
20260905010501 92 162 1.0 4.0 0.00 0.00 0.00 59 1011.8
20260905010002 92 162 1.0 5.0 0.00 0.00 0.00 58 1011.8
20260905005502 92 161 1.0 5.0 0.00 0.00 0.00 57 1011.8
20260905005002 92 153 1.0 5.0 0.00 0.00 0.00 57 1011.6
20260905003502 94 156 1.0 4.0 0.00 0.00 0.00 56 1011.5
20260905003002 94 155 1.0 5.0 0.00 0.00 0.00 55 1011.6
20260905002502 94 159 1.0 5.0 0.00 0.00 0.00 55 1011.5
20260905002002 95 157 1.0 6.0 0.00 0.00 0.00 53 1011.4
20260905001502 96 156 1.0 6.0 0.00 0.00 0.00 53 1011.3
20260905001002 96 152 1.0 4.0 0.00 0.00 0.00 53 1011.5
20260905000501 97 154 1.0 6.0 0.00 0.00 0.00 53 1011.5
20260905000002 97 161 1.0 6.0 0.00 0.00 0.00 53 1011.4
20260904235502 97 157 2.0 5.0 0.00 0.00 0.00 51 1011.4
20260904235001 97 155 1.0 6.0 0.00 0.00 0.00 52 1011.4
20260904234502 98 156 1.0 6.0 0.00 0.00 0.00 51 1011.4
20260904233002 98 151 1.0 5.0 0.00 0.00 0.00 51 1011.2
20260904232502 97 154 1.0 6.0 0.00 0.00 0.00 52 1011.2
20260904232002 97 155 2.0 6.0 0.00 0.00 0.00 52 1011.2
20260904231501 97 151 1.0 6.0 0.00 0.00 0.00 53 1011.3
20260904231001 97 149 0.0 4.0 0.00 0.00 0.00 52 1011.3
20260904230501 98 136 1.0 6.0 0.00 0.00 0.00 52 1011.3
20260904230002 98 148 2.0 6.0 0.00 0.00 0.00 52 1011.3
20260904225502 98 160 2.0 6.0 0.00 0.00 0.00 52 1011.2
20260904225002 98 157 1.0 6.0 0.00 0.00 0.00 51 1011.4
20260904224501 97 154 1.0 6.0 0.00 0.00 0.00 52 1011.5
20260904224001 97 154 2.0 7.0 0.00 0.00 0.00 52 1011.4
20260904223501 98 147 2.0 7.0 0.00 0.00 0.00 52 1011.4
20260904223002 98 143 1.0 6.0 0.00 0.00 0.00 52 1011.4
20260904222002 99 151 2.0 7.0 0.00 0.00 0.00 49 1011.4
20260904221502 99 154 2.0 7.0 0.00 0.00 0.00 50 1011.4
20260904221002 100 145 2.0 6.0 0.00 0.00 0.00 50 1011.4
20260904220502 99 108 2.0 8.0 0.00 0.00 0.00 51 1011.4
20260904220002 99 90 2.0 8.0 0.00 0.00 0.00 51 1011.5
20260904215502 99 105 1.0 5.0 0.00 0.00 0.00 52 1011.5
20260904215002 99 134 1.0 5.0 0.00 0.00 0.00 53 1011.6
20260904214502 100 137 2.0 6.0 0.00 0.00 0.00 51 1011.7
20260904214002 100 130 1.0 6.0 0.00 0.00 0.00 51 1011.6
20260904213502 100 99 1.0 4.0 0.00 0.00 0.00 52 1011.7
20260904212501 100 141 2.0 6.0 0.00 0.00 0.00 51 1011.8
20260904212001 100 120 2.0 6.0 0.00 0.00 0.00 51 1011.9
20260904211502 100 137 2.0 6.0 0.00 0.00 0.00 51 1011.9
20260904211002 99 159 2.0 8.0 0.00 0.00 0.00 51 1011.9
20260904210502 99 142 3.0 8.0 0.00 0.00 0.00 51 1012.0
20260904205501 101 156 2.0 8.0 0.00 0.00 0.00 49 1012.2
20260904205002 101 162 2.0 8.0 0.00 0.00 0.00 49 1012.1
20260904204502 101 156 2.0 6.0 0.00 0.00 0.00 49 1012.2
20260904204002 100 158 2.0 8.0 0.00 0.00 0.00 49 1012.2
20260904203002 100 187 2.0 8.0 0.00 0.00 0.00 48 1012.4
20260904202002 100 183 2.0 6.0 0.00 0.00 0.00 49 1012.5
20260904201502 100 177 2.0 6.0 0.00 0.00 0.00 49 1012.6
20260904201002 100 176 3.0 7.0 0.00 0.00 0.00 50 1012.6
20260904200502 99 175 3.0 7.0 0.00 0.00 0.00 49 1012.7
20260904200002 99 182 3.0 10.0 0.00 0.00 0.00 50 1012.7
20260904195502 99 181 3.0 10.0 0.00 0.00 0.00 49 1012.9
20260904195002 98 184 2.0 7.0 0.00 0.00 0.00 51 1013.0
20260904194502 98 181 2.0 8.0 0.00 0.00 0.00 50 1013.0
20260904194002 98 169 2.0 8.0 0.00 0.00 0.00 51 1013.2
20260904193502 98 170 2.0 8.0 0.00 0.00 0.00 51 1013.2
20260904192002 99 176 1.0 7.0 0.00 0.00 0.00 51 1013.5
20260904191502 99 187 1.0 7.0 0.00 0.00 0.00 50 1013.3
20260904190503 99 168 3.0 7.0 0.00 0.00 0.00 50 1013.6
20260904190002 99 171 2.0 8.0 0.00 0.00 0.00 52 1013.5
20260904185502 98 176 3.0 9.0 0.00 0.00 0.00 52 1013.6
20260904185003 98 179 3.0 10.0 0.00 0.00 0.00 51 1013.7
20260904184002 98 211 2.0 7.0 0.00 0.00 0.00 54 1013.7
20260904183502 98 183 2.0 7.0 0.00 0.00 0.00 54 1013.9
20260904183003 97 194 3.0 10.0 0.00 0.00 0.00 55 1014.1
20260904182503 97 190 4.0 10.0 0.00 0.00 0.00 55 1014.1
20260904182003 97 186 2.0 10.0 0.00 0.00 0.00 56 1014.2
20260904181502 96 196 2.0 8.0 0.00 0.00 0.00 57 1014.2
20260904181003 96 184 3.0 14.0 0.00 0.00 0.00 57 1014.3
20260904180502 96 177 3.0 14.0 0.00 0.00 0.00 56 1014.4
20260904180002 96 187 2.0 8.0 0.00 0.00 0.00 56 1014.4
20260904175502 96 214 3.0 8.0 0.00 0.00 0.00 56 1014.4
20260904175003 96 204 3.0 9.0 0.00 0.00 0.00 56 1014.6
20260904174003 95 251 2.0 6.0 0.00 0.00 0.00 58 1014.7
20260904173502 95 223 2.0 5.0 0.00 0.00 0.00 58 1014.7
20260904173002 96 196 2.0 6.0 0.00 0.00 0.00 57 1014.8
20260904172502 95 182 2.0 7.0 0.00 0.00 0.00 57 1014.9
20260904172002 95 161 2.0 7.0 0.00 0.00 0.00 58 1014.9
20260904171503 94 164 2.0 6.0 0.00 0.00 0.00 59 1014.9
20260904170002 94 201 3.0 8.0 0.00 0.00 0.00 58 1015.0
20260904164502 93 194 2.0 9.0 0.00 0.00 0.00 61 1015.2
20260904163502 92 199 2.0 7.0 0.00 0.00 0.00 66 1015.2
20260904163002 92 202 3.0 8.0 0.00 0.00 0.00 65 1015.2
20260904162003 91 196 2.0 6.0 0.00 0.00 0.00 67 1015.3
20260904161503 91 182 2.0 7.0 0.00 0.00 0.00 69 1015.1
20260904161002 91 197 3.0 7.0 0.00 0.00 0.00 67 1015.2
20260904160503 90 222 2.0 7.0 0.00 0.00 0.00 70 1015.2
20260904160002 90 206 2.0 7.0 0.00 0.00 0.00 69 1015.4
20260904155002 89 173 2.0 7.0 0.00 0.00 0.00 72 1015.4
20260904154503 89 182 2.0 7.0 0.00 0.00 0.00 73 1015.2
20260904154003 89 182 2.0 7.0 0.00 0.00 0.00 72 1015.2
20260904153002 88 193 2.0 8.0 0.00 0.00 0.00 73 1015.2
20260904152002 88 184 3.0 10.0 0.00 0.00 0.00 75 1015.0
20260904151503 87 176 2.0 9.0 0.00 0.00 0.00 76 1015.0
20260904151002 87 174 2.0 8.0 0.00 0.00 0.00 79 1015.0
20260904150502 86 184 3.0 8.0 0.00 0.00 0.00 78 1015.0
20260904150003 86 188 3.0 7.0 0.00 0.00 0.00 79 1015.0
20260904145502 86 200 2.0 9.0 0.00 0.00 0.00 80 1015.1
20260904145003 86 197 2.0 9.0 0.00 0.00 0.00 82 1015.1
20260904144002 84 178 3.0 7.0 0.00 0.00 0.00 84 1015.1
20260904143503 84 181 3.0 8.0 0.00 0.00 0.00 84 1015.2
20260904142503 84 187 3.0 8.0 0.00 0.00 0.00 85 1015.2
20260904141503 83 183 3.0 9.0 0.00 0.00 0.00 86 1015.1
20260904141002 83 172 3.0 9.0 0.00 0.00 0.00 87 1015.0
20260904140503 82 173 3.0 8.0 0.00 0.00 0.00 87 1015.0
20260904140003 82 176 2.0 8.0 0.00 0.00 0.00 89 1015.1
20260904135503 82 170 2.0 8.0 0.00 0.00 0.00 90 1015.0
20260904135002 81 172 2.0 7.0 0.00 0.00 0.00 90 1015.0
20260904134503 81 183 1.0 5.0 0.00 0.00 0.00 91 1014.9
20260904133003 79 164 1.0 5.0 0.00 0.00 0.00 93 1014.7
20260904132502 79 165 1.0 4.0 0.00 0.00 0.00 94 1014.7
20260904132003 78 166 1.0 5.0 0.00 0.00 0.00 94 1014.7
20260904131502 78 166 1.0 7.0 0.00 0.00 0.00 94 1014.6
20260904131003 78 168 1.0 7.0 0.00 0.00 0.00 94 1014.6
20260904130502 78 172 1.0 6.0 0.00 0.00 0.00 94 1014.5
20260904130003 78 170 1.0 4.0 0.00 0.00 0.00 94 1014.5
20260904125503 77 168 1.0 5.0 0.00 0.00 0.00 94 1014.5
20260904125003 77 170 1.0 5.0 0.00 0.00 0.00 94 1014.5
20260904124503 77 175 1.0 5.0 0.00 0.00 0.00 95 1014.4
20260904124002 77 176 1.0 4.0 0.00 0.00 0.00 95 1014.3
20260904123503 77 170 0.0 3.0 0.00 0.00 0.00 95 1014.4
20260904123002 77 167 0.0 3.0 0.00 0.00 0.00 95 1014.5
20260904122503 77 173 1.0 3.0 0.00 0.00 0.00 95 1014.3
20260904121003 77 164 1.0 3.0 0.00 0.00 0.00 95 1014.3
20260904120003 77 166 1.0 4.0 0.00 0.00 0.00 94 1014.3
20260904115502 77 170 1.0 4.0 0.00 0.00 0.00 94 1014.2
20260904115003 77 165 1.0 4.0 0.00 0.00 0.00 94 1014.2
20260904114503 77 162 1.0 4.0 0.00 0.00 0.00 94 1014.0
20260904114003 77 166 1.0 5.0 0.00 0.00 0.00 94 1014.1
20260904113503 77 174 1.0 5.0 0.00 0.00 0.00 94 1014.0
20260904113003 77 166 1.0 3.0 0.00 0.00 0.00 94 1014.0
20260904112503 77 157 0.0 4.0 0.00 0.00 0.00 94 1013.9
20260904112003 77 165 1.0 5.0 0.00 0.00 0.00 94 1013.8
20260904111503 76 165 1.0 5.0 0.00 0.00 0.00 94 1013.8
20260904111003 76 159 0.0 4.0 0.00 0.00 0.00 93 1013.9
20260904110503 76 163 1.0 4.0 0.00 0.00 0.00 93 1013.9
20260904110003 77 167 1.0 5.0 0.00 0.00 0.00 93 1013.9
20260904105503 76 166 1.0 5.0 0.00 0.00 0.00 93 1013.9
20260904105003 76 163 1.0 3.0 0.00 0.00 0.00 93 1013.9
20260904104503 76 165 1.0 3.0 0.00 0.00 0.00 93 1013.9
20260904104003 76 167 0.0 3.0 0.00 0.00 0.00 93 1013.8
20260904102503 76 169 0.0 2.0 0.00 0.00 0.00 92 1013.8
20260904102003 76 163 0.0 4.0 0.00 0.00 0.00 92 1013.7
20260904101503 76 166 0.0 4.0 0.00 0.00 0.00 92 1013.6
20260904101003 76 172 0.0 2.0 0.00 0.00 0.00 92 1013.8
20260904100503 76 173 0.0 2.0 0.00 0.00 0.00 91 1013.7
20260904100003 76 173 0.0 1.0 0.00 0.00 0.00 90 1013.7
20260904095003 76 173 0.0 1.0 0.00 0.00 0.00 90 1013.6
20260904094503 76 173 0.0 1.0 0.00 0.00 0.00 90 1013.5
20260904094003 76 173 0.0 1.0 0.00 0.00 0.00 90 1013.6
20260904093503 76 173 0.0 1.0 0.00 0.00 0.00 89 1013.6
20260904092003 76 173 0.0 2.0 0.00 0.00 0.00 89 1013.6
20260904091503 76 173 0.0 2.0 0.00 0.00 0.00 89 1013.6
20260904091003 76 173 0.0 1.0 0.00 0.00 0.00 89 1013.6
20260904090502 76 173 0.0 1.0 0.00 0.00 0.00 88 1013.6
20260904085504 76 173 0.0 2.0 0.00 0.00 0.00 88 1013.5
20260904085003 76 173 0.0 1.0 0.00 0.00 0.00 88 1013.5
20260904084004 76 173 0.0 2.0 0.00 0.00 0.00 88 1013.6
20260904083503 76 173 0.0 2.0 0.00 0.00 0.00 88 1013.6
20260904083003 76 0 0.0 0.0 0.00 0.00 0.00 87 1013.5
20260904082003 77 173 0.0 2.0 0.00 0.00 0.00 87 1013.4
20260904081503 77 173 0.0 2.0 0.00 0.00 0.00 86 1013.5
20260904081003 77 172 0.0 2.0 0.00 0.00 0.00 86 1013.6
20260904080503 77 171 0.0 2.0 0.00 0.00 0.00 86 1013.6
20260904080004 77 171 0.0 2.0 0.00 0.00 0.00 86 1013.5
20260904075503 77 172 0.0 1.0 0.00 0.00 0.00 86 1013.4
20260904075004 77 171 0.0 2.0 0.00 0.00 0.00 85 1013.3
20260904074503 77 170 0.0 2.0 0.00 0.00 0.00 85 1013.2
20260904073003 77 159 0.0 1.0 0.00 0.00 0.00 85 1013.5
20260904072503 77 160 0.0 2.0 0.00 0.00 0.00 85 1013.6
20260904072003 77 156 0.0 2.0 0.00 0.00 0.00 84 1013.6
20260904071504 77 159 0.0 2.0 0.00 0.00 0.00 84 1013.6
20260904071003 77 168 0.0 2.0 0.00 0.00 0.00 84 1013.5
20260904070004 78 183 1.0 4.0 0.00 0.00 0.00 84 1013.5
20260904065504 78 184 1.0 4.0 0.00 0.00 0.00 84 1013.6
20260904065003 78 175 1.0 3.0 0.00 0.00 0.00 84 1013.7
20260904064504 78 178 1.0 3.0 0.00 0.00 0.00 83 1013.7
20260904064003 78 179 1.0 3.0 0.00 0.00 0.00 83 1013.7
20260904063503 78 175 1.0 4.0 0.00 0.00 0.00 83 1013.6
20260904063004 78 175 1.0 4.0 0.00 0.00 0.00 83 1013.6
20260904062503 78 172 0.0 2.0 0.00 0.00 0.00 83 1013.6
20260904062003 78 173 0.0 2.0 0.00 0.00 0.00 82 1013.6
20260904061504 78 173 0.0 2.0 0.00 0.00 0.00 82 1013.6
20260904061003 78 170 0.0 2.0 0.00 0.00 0.00 82 1013.7
20260904060503 78 177 0.0 2.0 0.00 0.00 0.00 82 1013.7
20260904060004 78 185 1.0 3.0 0.00 0.00 0.00 82 1013.6
20260904055504 78 190 1.0 3.0 0.00 0.00 0.00 81 1013.6
20260904055004 78 187 1.0 3.0 0.00 0.00 0.00 81 1013.7
20260904054504 78 183 1.0 3.0 0.00 0.00 0.00 81 1013.7
20260904054003 78 172 0.0 3.0 0.00 0.00 0.00 81 1013.6